Weather History for East Midlands, United Kingdom

Change the Weather History Date:

Saturday, October 26, 2013

  Actual Average Record
Temperature  
Mean Temperature 56 °F -  
Max Temperature 60 °F 48 °F 62 °F (2005)
Min Temperature 51 °F 39 °F 32 °F (1997)
Degree Days  
Heating Degree Days 10    
Growing Degree Days 6 (Base 50)    
Moisture  
Dew Point 52 °F    
Average Humidity 82    
Maximum Humidity 94    
Minimum Humidity 63    
Precipitation  
Precipitation 0.00 in - - ()
Sea Level Pressure  
Sea Level Pressure 29.52 in    
Wind  
Wind Speed 16 mph ()    
Max Wind Speed 25 mph    
Max Gust Speed -    
Visibility 6.1 miles    
Events Rain    
Averages and records for this station are not official NWS values.
T = Trace of Precipitation, MM = Missing Value Source: Averaged Metar Reports

Daily Weather History Graph

Daily Weather History Graph

Search for Another Location

Airport:

Trip Planner

Search our weather history database for the weather conditions in past years. The results will help you decide how hot, cold, wet, or windy it might be!

Date:

Astronomy

Oct. 26, 2013 Rise Set
Actual Time 7:51 AM BST 5:46 PM BST
Civil Twilight 7:15 AM BST 6:21 PM BST
Nautical Twilight 6:35 AM BST 7:02 PM BST
Astronomical Twilight 5:55 AM BST 7:41 PM BST
Moon 11:42 PM BST (10/26) 2:07 PM BST (10/26)
Length of Visible Light 11h 06m
Length of Day
9h 54m
Waning Gibbous, 55% of the Moon is Illuminated
Oct 26
Waning Gibbous
Oct 27
Last Quarter
Nov 3
New
Nov 10
First Quarter
Nov 17
Full

Hourly Weather History & Observations

Time (BST) Temp. Dew Point Humidity Pressure Visibility Wind Dir Wind Speed Gust Speed Precip Events Conditions
12:20 AM 57.2 °F 53.6 °F 88% 29.59 in 6.2 mi SW 20.7 mph - N/A   Partly Cloudy
12:50 AM 57.2 °F 53.6 °F 88% 29.59 in 6.2 mi SW 18.4 mph - N/A   Partly Cloudy
1:20 AM 57.2 °F 53.6 °F 88% 29.59 in 6.2 mi SW 18.4 mph - N/A   Partly Cloudy
1:50 AM 57.2 °F 53.6 °F 88% 29.59 in 6.2 mi SW 17.3 mph - N/A   Partly Cloudy
2:20 AM 55.4 °F 51.8 °F 88% 29.59 in - SSW 15.0 mph - N/A   Clear
2:50 AM 57.2 °F 53.6 °F 88% 29.59 in - SW 17.3 mph - N/A   Clear
3:20 AM 57.2 °F 53.6 °F 88% 29.59 in 6.2 mi SSW 16.1 mph - N/A   Scattered Clouds
3:50 AM 57.2 °F 53.6 °F 88% 29.56 in 6.2 mi SSW 18.4 mph - N/A   Scattered Clouds
4:20 AM 57.2 °F 53.6 °F 88% 29.56 in 6.2 mi SW 16.1 mph - N/A   Scattered Clouds
4:50 AM 57.2 °F 53.6 °F 88% 29.56 in 6.2 mi SSW 16.1 mph - N/A   Scattered Clouds
5:20 AM 57.2 °F 53.6 °F 88% 29.56 in 6.2 mi SSW 16.1 mph - N/A Rain Light Rain
5:50 AM 57.2 °F 53.6 °F 88% 29.56 in 6.2 mi SSW 15.0 mph - N/A   Mostly Cloudy
6:20 AM 55.4 °F 53.6 °F 94% 29.56 in 6.2 mi SSW 16.1 mph - N/A   Scattered Clouds
6:50 AM 57.2 °F 53.6 °F 88% 29.56 in 6.2 mi SSW 15.0 mph - N/A   Scattered Clouds
7:20 AM 57.2 °F 53.6 °F 88% 29.56 in 6.2 mi SSW 13.8 mph - N/A   Mostly Cloudy
7:50 AM 57.2 °F 53.6 °F 88% 29.56 in 6.2 mi SSW 12.7 mph - N/A   Mostly Cloudy
8:20 AM 57.2 °F 53.6 °F 88% 29.56 in 6.2 mi SSW 11.5 mph - N/A   Mostly Cloudy
8:50 AM 57.2 °F 53.6 °F 88% 29.56 in 5.6 mi SSW 13.8 mph - N/A   Light Drizzle
9:20 AM 57.2 °F 53.6 °F 88% 29.56 in 6.2 mi SSW 13.8 mph - N/A   Mostly Cloudy
9:50 AM 59.0 °F 55.4 °F 88% 29.56 in 6.2 mi SSW 13.8 mph - N/A   Mostly Cloudy
10:20 AM 59.0 °F 53.6 °F 82% 29.56 in 5.0 mi SW 16.1 mph - N/A Rain Light Rain Showers
10:50 AM 59.0 °F 55.4 °F 88% 29.56 in 6.2 mi SW 17.3 mph - N/A   Mostly Cloudy
11:20 AM 60.8 °F 53.6 °F 77% 29.56 in 6.2 mi SW 15.0 mph - N/A   Scattered Clouds
11:50 AM 60.8 °F 53.6 °F 77% 29.56 in 6.2 mi WSW 18.4 mph - N/A   Scattered Clouds
12:20 PM 60.8 °F 53.6 °F 77% 29.56 in 6.2 mi WSW 16.1 mph - N/A   Mostly Cloudy
12:50 PM 60.8 °F 53.6 °F 77% 29.56 in 6.2 mi SW 17.3 mph - N/A   Mostly Cloudy
1:20 PM 60.8 °F 53.6 °F 77% 29.56 in 6.2 mi SW 18.4 mph - N/A   Mostly Cloudy
1:50 PM 60.8 °F 51.8 °F 72% 29.53 in 6.2 mi SW 24.2 mph - N/A   Mostly Cloudy
2:20 PM 60.8 °F 50.0 °F 68% 29.53 in 6.2 mi SW 21.9 mph - N/A   Mostly Cloudy
2:50 PM 59.0 °F 50.0 °F 72% 29.53 in 6.2 mi SW 25.3 mph - N/A   Mostly Cloudy
3:20 PM 59.0 °F 48.2 °F 67% 29.56 in 6.2 mi SW 21.9 mph - N/A   Mostly Cloudy
3:50 PM 59.0 °F 46.4 °F 63% 29.53 in 6.2 mi SW 18.4 mph - N/A   Mostly Cloudy
4:20 PM 59.0 °F 48.2 °F 67% 29.53 in 6.2 mi SW 17.3 mph - N/A   Mostly Cloudy
4:50 PM 59.0 °F 50.0 °F 72% 29.53 in 6.2 mi SSW 18.4 mph - N/A   Mostly Cloudy
5:20 PM 57.2 °F 50.0 °F 77% 29.50 in 6.2 mi SSW 17.3 mph - N/A   Partly Cloudy
5:50 PM 57.2 °F 50.0 °F 77% 29.50 in 6.2 mi SSW 17.3 mph - N/A   Partly Cloudy
6:20 PM 57.2 °F 48.2 °F 72% 29.47 in 6.2 mi SSW 16.1 mph - N/A   Partly Cloudy
6:50 PM 57.2 °F 48.2 °F 72% 29.44 in 6.2 mi South 18.4 mph - N/A   Partly Cloudy
7:20 PM 57.2 °F 50.0 °F 77% 29.44 in 6.2 mi SSW 21.9 mph - N/A   Partly Cloudy
7:50 PM 57.2 °F 50.0 °F 77% 29.42 in - SSW 21.9 mph - N/A   Clear
8:20 PM 57.2 °F 50.0 °F 77% 29.42 in 6.2 mi SSW 21.9 mph - N/A   Partly Cloudy
8:50 PM 57.2 °F 51.8 °F 82% 29.39 in 6.2 mi SSW 23.0 mph - N/A   Scattered Clouds
9:20 PM 55.4 °F 51.8 °F 88% 29.39 in 5.0 mi SSW 23.0 mph - N/A Rain Light Rain
9:50 PM 55.4 °F 53.6 °F 94% 29.36 in 5.0 mi SSW 21.9 mph - N/A Rain Light Rain
10:20 PM 55.4 °F 51.8 °F 88% 29.42 in 6.2 mi SW 19.6 mph - N/A Rain Light Rain
10:50 PM 51.8 °F 50.0 °F 94% 29.39 in 6.2 mi West 9.2 mph - N/A Rain Light Rain
11:20 PM 53.6 °F 51.8 °F 94% 29.39 in 6.2 mi SW 9.2 mph - N/A   Scattered Clouds
11:50 PM 53.6 °F 50.0 °F 88% 29.39 in 6.2 mi SW 12.7 mph - N/A   Scattered Clouds